User: anonymous   Login
Location: Unspecified
(0.0000°N, 0.0000°E)
Time: 00:29:33
(UTC+00:00)
Language:

HO-68 - Orbit

View from above orbital plane
View from above orbital plane
View from above satellite
View from above satellite

Ground track
Ground track

The orbit data is extracted from the following two-line orbital elements,

1 36122U 09072B   24201.86778432 -.00000046  00000-0 -50452-5 0  9999
2 36122 100.2956 159.2861 0007940  32.9899 327.1708 13.16403754701359
Epoch (UTC): 19 July 2024 20:49:36
Eccentricity: 0.0007940
inclination: 100.2956°
perigee height: 1192 km
apogee height: 1204 km
right ascension of ascending node: 159.2861°
argument of perigee: 32.9899°
revolutions per day: 13.16403754
mean anomaly at epoch: 327.1708°
orbit number at epoch: 70135

The dashed part of the orbit path shows where the satellite is in the earth's shadow,  

DLR